DECAYED

STARLINK-1366, 45569 (Decayed)

Orbit data source: Space-Track

STARLINK-1366, 45569 was a payload satellite owned by SpaceX/Seattle (US) in LEO that was launched on Wed, 22 Apr 2020 UTC via an FALCON 9 launch vehicle from the Air Force Eastern Test Range (AFETR). Payload-class satellites include a variety of spacecraft equipped with specific instruments for various scientific and technological missions. These include communications satellites like Starlink; space stations such as the ISS; scientific satellites like the Hubble; Earth observation satellites from companies like Planet Labs, Umbra, and HawkEye 360; GPS; miniature CubeSats for education and research; and military/defense satellites.

Not visible in the next 10 days
Identifier
45569, 2020-025AQ
Orbit
Decayed
Country
Flag of USUS
Related business
Manufacturer
SpaceX/Seattle
Mission
Decayed Commercial Communications
Bus & Motor
STARLINK, Unknown motor
Mass
260 kg wet, ~248 kg dry
Launch date (UTC)
2020-04-22 (6 years ago)
Launch vehicle
FALCON 9
Launch site
Air Force Eastern Test Range (AFETR)
Object type
Payload
Rocket body
Debris
Shape & HBR
Box + 1 Pan, 10.1 m
Radar Cross Section
13.562 m², Large (>1 m²)

Expand to show TLE details & history
Last TLE update: 3 months ago

TLE from 3 months ago
0 STARLINK-1366
1 45569U 20025AQ  26160.53513946  .09810965  12570-4  24686-3 0  9995
2 45569  53.0192 289.7408 0006691 298.0725  61.9646 16.45561036340662
Epoch: 2026-06-09T12:50Z
TLE epoch observation values (Epoch: 2026-06-09T12:50:36.049Z)
Latitude
-0.00006°
Longitude
-160.8157°
Altitude
149.928 km
Speed
7.819 km/s
True Right ascension
19h 18m 57s
True Declination
0° 00' 00"
Sunlit
Object was in full shadow at epoch
Visualization orbit readout
Latitude
Unknown
Longitude
Unknown
Altitude
Unknown
Speed
Unknown
Apparent Right ascension
Unknown
Apparent Declination
Unknown
Sunlit
N/A
Visualization observer readout
Local Sidereal Time
14:31:40
Azimuth
Unknown
Elevation
Unknown
Doppler factor
Unknown
Orbital elements
Apogee altitude
155.713 km
Perigee altitude
146.975 km
Semi-major axis
6,529.481 km
Eccentricity
0.00067
Inclination
53.0192°
RAAN
289.7408°
Arg. of periapsis
298.0725°
True anomaly
62.0323°
Mean anomaly
61.9646°
Eccentric anomaly
61.99845°
Mean motion
4.11363 °/min
Orbital period
87.51 mins
BSTAR
0.00024686
Loading maneuver chart data...
Computing Atmospheric mass density...

Documentation

Showing up to 5 results
|